Miscellaneous Local Product
Issued by NWS Hastings, NE

Home | Current Version | Previous Version | Graphics & Text | Print | Product List | Glossary On
Versions: 1 2 3 4 5 6 7 8 9 10 11 12 13 14 15 16 17 18 19 20 21 22 23 24 25 26 27 28 29 30 31 32 33 34 35 36 37 38 39 40 41 42 43 44 45 46 47 48 49 50
000
AXUS43 KGID 290602
MISGRI

GID CWA HOURLY WEATHER ROUNDUP
NATIONAL WEATHER SERVICE HASTINGS NE
100 AM CDT FRI APR 29 2016

NOTE: "FAIR" INDICATES FEW OR NO CLOUDS BELOW 12,000 FEET WITH NO
SIGNIFICANT WEATHER AND/OR OBSTRUCTIONS TO VISIBILITY.

...SOUTH CENTRAL NEBRASKA...

CITY           SKY/WX    TMP DP  RH WIND       PRES   REMARKS
GRAND ISLAND   CLOUDY    43  39  86 N5        30.14R
HASTINGS       CLOUDY    44  39  82 NE7       30.13S
KEARNEY        CLOUDY    45  39  81 NE8       30.13R
ORD            CLOUDY    41  38  89 NW5       30.12S
YORK           CLOUDY    45  39  81 N3        30.14S
AURORA         CLOUDY    44  41  89 CALM      30.13F
LEXINGTON      CLOUDY    44  41  89 E3        30.12S
HOLDREGE       CLOUDY    44  41  88 NE3       30.11S
HEBRON         CLOUDY    47  42  80 NE7       30.12F

...NEBRASKA PANHANDLE...

CITY           SKY/WX    TMP DP  RH WIND       PRES   REMARKS
CHADRON        CLOUDY    38  36  92 NE9       30.12S WCI  31
ALLIANCE       CLOUDY    33  32  96 NE6       30.08F WCI  28
SCOTTSBLUFF    CLOUDY    35  32  88 CALM      30.10R
SIDNEY         CLOUDY    35  33  92 NE9       30.09R WCI  28

...WESTERN AND NORTH CENTRAL NEBRASKA...

CITY           SKY/WX    TMP DP  RH WIND       PRES   REMARKS
VALENTINE      CLOUDY    39  36  89 NW5       30.13F
AINSWORTH      CLOUDY    39  39  98 NW3       30.14R FOG
ONEILL         CLOUDY    41  39  93 CALM      30.14R
BROKEN BOW     CLOUDY    41  39  93 N7        30.12F
IMPERIAL       CLOUDY    43  39  86 E7        30.11R
NORTH PLATTE   CLOUDY    42  38  85 NE7       30.11S
MCCOOK         CLOUDY    44  39  82 NE6       30.11R

...EASTERN NEBRASKA...

CITY           SKY/WX    TMP DP  RH WIND       PRES   REMARKS
NORFOLK        CLOUDY    42  38  85 N5        30.13R
SO SIOUX CITY  CLOUDY    44  38  79 N5        30.14R
TEKAMAH        CLOUDY    44  41  89 N7        30.14R
COLUMBUS       CLOUDY    45  34  65 NW5       30.15R
ALBION         CLOUDY    42  38  87 CALM      30.13S
OMAHA EPPLEY   CLOUDY    46  41  82 NW3       30.14R
OFFUTT AFB     CLOUDY    46  40  81 N5        30.12R
MILLARD        CLOUDY    46  40  79 NW6       30.14R
LINCOLN        CLOUDY    47  42  83 N8        30.14R
NEBRASKA CITY  CLOUDY    47  42  83 N5        30.12S
BEATRICE       CLOUDY    47  43  84 N9        30.11F
FALLS CITY     CLOUDY    49  42  77 NW6       30.10S

...NORTHERN KANSAS...

CITY           SKY/WX    TMP DP  RH WIND       PRES   REMARKS
GOODLAND       CLOUDY    42  38  85 E13       30.05F
HILL CITY      CLOUDY    46  42  86 NE9       30.08F
NORTON         CLOUDY    45  37  76 N8        30.08F
PHILLIPSBURG   CLOUDY    48  43  81 CALM      30.10S
SMITH CENTER   CLOUDY    46  43  87 NE9       30.11R
BELOIT         CLOUDY    48  43  81 NE9       30.08F
HAYS           CLOUDY    46  36  66 NE14      30.06S
RUSSELL        CLOUDY    48  43  82 NE12      30.05S
CONCORDIA      CLOUDY    49  42  77 NE8       30.10F
SALINA         CLOUDY    53  44  71 NE10      30.06F
TOPEKA         CLOUDY    51  45  79 N9        30.08F



USA.gov is the U.S. government's official web portal to all federal, state and local government web resources and services.